Regional Weather Roundup
Issued by NWS

Home | Current Version | Previous Version | Graphics & Text | Print | Product List | Glossary On
Versions: 1 2 3 4 5 6 7 8 9 10 11 12 13 14 15 16 17 18 19 20 21 22 23 24 25 26 27 28 29 30 31 32 33 34 35 36 37 38 39 40 41 42 43 44 45 46 47 48 49 50
000
ASUS43 KDTX 180701
RWRMI
MICHIGAN HOURLY REGIONAL WEATHER ROUNDUP
NATIONAL WEATHER SERVICE DETROIT/PONTIAC MI
200 AM EST MON DEC 18 2017

NOTE: "FAIR" INDICATES FEW OR NO CLOUDS BELOW 12,000 FEET WITH NO
SIGNIFICANT WEATHER AND/OR OBSTRUCTION TO VISIBILITY.

MIZ047>049-052>055-059>063-066>070-074>076-081>083-180800-
SOUTHEAST LOWER MICHIGAN

CITY           SKY/WX    TMP DP  RH WIND       PRES   REMARKS
ADRIAN         CLOUDY    35  34  96 SW6       30.00F WCI  30
ALMA           CLOUDY    28  28  99 CALM      29.94S FOG
ANN ARBOR      CLOUDY    34  34 100 S6        29.98S FOG     WCI  29
BAD AXE        CLOUDY    26  25  96 S3        29.94F FOG
CARO           CLOUDY    28  27  98 CALM      29.93F FOG
DETROIT CITY   CLEAR     33  32  96 SW6       29.98F FOG     WCI  28
DETROIT        MOCLDY    37  34  89 SW10      29.99F WCI  30
FLINT          CLOUDY    34  31  88 S8        29.95F WCI  27
GROSSE ILE     CLOUDY    34  33  95 S6        29.98F FOG     WCI  29
HILLSDALE      CLOUDY    36  34  93 SW6       29.96F FOG     WCI  31
HOWELL         CLOUDY    34  33  97 S3        29.95S FOG

CITY           SKY/WX    TMP DP  RH WIND       PRES   REMARKS
JACKSON        CLOUDY    38  34  85 SW13      29.96F WCI  30
LAMBERTVILLE   CLOUDY    39  34  81 SW6       30.00S WCI  35
LANSING        CLOUDY    35  33  92 SW7       29.95S WCI  29
LAPEER         MOCLDY    28  28 100 CALM      29.94F FOG
MASON          MOCLDY    37  32  84 SW5       29.95F WCI  33
MONROE         CLOUDY    38  34  83 SW10      29.99S WCI  31
MT. CLEMENS    CLEAR     20  20  99 CALM      29.95F VSB 1/4
PONTIAC        CLOUDY    27  27 100 SW3       29.95F FOG
PORT HOPE        N/A     28  25  88 CALM      29.93F
PORT HURON     CLOUDY    27  23  86 CALM      29.97F
TRI CITIES     CLOUDY    28  27  96 CALM      29.95S FOG
MIDLAND        CLOUDY    28  26  93 CALM      29.94F FOG
TROY           PTCLDY    31  30  96 SW5       29.99F FOG     WCI  27
SAGINAW HB     CLOUDY    28  28 100 CALM      29.94S FOG
$$
MIZ043>046-050>051-056>058-064>065-071>073-077>080-180800-
SOUTHWEST LOWER MICHIGAN

CITY           SKY/WX    TMP DP  RH WIND       PRES   REMARKS
BATTLE CREEK   CLOUDY    38  35  89 SW13      29.96F WCI  30
BENTON HARBOR  CLOUDY    41  36  82 S8        29.96F
BIG RAPIDS     CLOUDY    27  26  95 CALM      29.92F FOG
COLDWATER      CLOUDY    38  37  94 SW7       29.98S WCI  33
HOLLAND        CLOUDY    36  35  96 SW5       29.95F FOG     WCI  32
GRAND RAPIDS   CLOUDY    35  33  92 SW8       29.95R WCI  29
IONIA          CLOUDY    34  33  96 SW8       29.93S WCI  27
KALAMAZOO      CLOUDY    39  35  86 SW9       29.96F WCI  33
LUDINGTON      CLOUDY    29  27  92 SE5       29.92F FOG     WCI  24
MARSHALL       CLOUDY    38  37  97 SW9       29.96S WCI  31
MOUNT PLEASANT FOG       28  27  95 CALM      29.93S VSB 3/4
MUSKEGON       CLOUDY    39  33  79 SW12      29.94F HAZE    WCI  32
SOUTH HAVEN    CLOUDY    43  37  79 SW9G21    29.95F
$$
MIZ016>042-180800-
NORTHERN LOWER MICHIGAN

CITY           SKY/WX    TMP DP  RH WIND       PRES   REMARKS
ALPENA         FOG       28  28 100 CALM      29.94F VSB 3/4
BEAVER ISLAND  CLOUDY    31  29  93 CALM      29.90F
BELLAIRE       CLOUDY    27  27 100 CALM      29.93F FOG
CADILLAC       FOG       25  25  99 CALM      29.90R VSB 1/4
CHARLEVOIX     CLOUDY    28  28 100 SE3       29.94F FOG
FRANKFORT      CLOUDY    31  30  98 CALM      29.92F FOG
GAYLORD        FOG       24  22  91 CALM      29.89F VSB 1/4
GRAYLING       CLOUDY    25  23  93 CALM      29.91S FOG
HARBOR SPRINGS CLOUDY    26  25  94 CALM      29.92F
HOUGHTON LAKE  FOG       25  24  96 CALM      29.92S VSB 1/4
MANISTEE       FOG       28  27  96 E3        29.93S VSB 1
OSCODA         FOG       29  28  97 SW3       29.95R VSB 1
PELLSTON       CLOUDY    26  24  92 CALM      29.93F
ROGERS CITY    CLOUDY    28  25  90 S3        29.94F
TRAVERSE CITY  CLOUDY    28  26  92 CALM      29.92F FOG
$$
MIZ007>008-015-180800-
EASTERN UPPER MICHIGAN

CITY           SKY/WX    TMP DP  RH WIND       PRES   REMARKS
MACKINAC ISLAN CLOUDY    29  25  85 S3        29.92S
NEWBERRY       LGT SNOW  22  21  96 CALM      29.88F
S. S. MARIE    LGT SNOW  22  19  89 E6        29.92F FOG     WCI  14
MUNISING         N/A     24  24 100 CALM      29.88F
$$
MIZ004>006-011>014-085-180800-
CENTRAL UPPER MICHIGAN

CITY           SKY/WX    TMP DP  RH WIND       PRES   REMARKS
MANISTIQUE     CLOUDY    30  25  81 CALM      29.88F HAZE
ESCANABA       CLOUDY    28  26  92 CALM      29.90F
MENOMINEE      CLOUDY    28  27  96 CALM      29.92F FOG
$$
MIZ001>003-009>011-084-180800-
WESTERN UPPER MICHIGAN

CITY           SKY/WX    TMP DP  RH WIND       PRES   REMARKS
IRON MOUNTAIN  CLOUDY    27  23  85 W3        29.85F
HOUGHTON       CLOUDY    27  22  81 W10       29.83F WCI  17
COPPER HARBOR    N/A     28  23  81 SW5       29.84F WCI  23
IRONWOOD       FLURRIES  25  24  96 SW9       29.85F WCI  15
$$

ABBREVIATIONS USED IN REMARKS
   TC - TEMPERATURE IN CELSIUS
  WCI - WIND CHILL INDEX
   HX - HEAT INDEX
  VSB - VISIBILITY





USA.gov is the U.S. government's official web portal to all federal, state and local government web resources and services.